Total_Precipitation_Accumulation
0.06 0.11 0.23 0.21 0.19 0.17 0.14 0.10 0.10 0.13 0.12 0.10 0.10 0.10 0.10 0.11 0.11 0.10 0.08 0.07 0.05 0.05 0.06 0.06 0.06 0.07 0.09 0.12 0.14 0.17 0.30 0.41 0.54 0.64 0.72 0.86 0.95 0.97 0.95 0.94 0.92 0.78 0.62 0.62
0.08 0.11 0.10 0.08 0.08 0.09 0.09 0.10 0.09 0.10 0.09 0.08 0.07 0.06 0.06 0.06 0.07 0.07 0.07 0.06 0.05 0.04 0.04 0.04 0.05 0.08 0.09 0.09 0.12 0.17 0.27 0.46 0.63 0.82 0.98 1.06 1.18 1.21 1.17 1.18 1.12 1.09 0.97 0.91
0.06 0.07 0.05 0.05 0.06 0.08 0.08 0.09 0.09 0.08 0.07 0.05 0.04 0.04 0.03 0.03 0.04 0.04 0.04 0.04 0.04 0.04 0.04 0.03 0.03 0.04 0.05 0.07 0.09 0.15 0.24 0.42 0.67 0.94 1.11 1.16 1.23 1.37 1.39 1.28 1.20 1.18 1.21 1.23
0.01 0.01 0.02 0.02 0.04 0.06 0.10 0.08 0.08 0.07 0.07 0.06 0.05 0.07 0.05 0.05 0.05 0.04 0.03 0.04 0.03 0.03 0.02 0.02 0.02 0.02 0.04 0.06 0.09 0.12 0.26 0.39 0.58 0.79 1.00 1.13 1.25 1.46 1.48 1.35 1.21 1.13 1.17 1.24
0.00 0.00 0.00 0.01 0.02 0.03 0.05 0.04 0.05 0.06 0.08 0.07 0.05 0.09 0.09 0.06 0.09 0.08 0.06 0.05 0.03 0.02 0.03 0.03 0.04 0.05 0.07 0.08 0.11 0.17 0.30 0.43 0.61 0.81 1.02 1.21 1.29 1.34 1.37 1.24 1.11 1.03 1.05 1.06
0.00 0.00 0.00 0.00 0.00 0.01 0.01 0.02 0.04 0.04 0.05 0.05 0.04 0.09 0.15 0.13 0.10 0.08 0.07 0.06 0.04 0.03 0.06 0.08 0.12 0.13 0.13 0.15 0.17 0.25 0.39 0.58 0.73 0.82 0.92 0.98 1.08 1.22 1.23 1.20 1.13 1.11 1.07 0.95
0.00 0.00 0.00 0.00 0.00 0.00 0.01 0.05 0.09 0.10 0.12 0.10 0.07 0.15 0.23 0.17 0.12 0.11 0.10 0.08 0.07 0.09 0.15 0.20 0.25 0.27 0.27 0.29 0.34 0.42 0.49 0.57 0.61 0.61 0.66 0.75 0.83 0.91 0.93 0.96 1.05 1.08 1.09 1.00
0.00 0.00 0.00 0.00 0.00 0.01 0.01 0.04 0.12 0.15 0.17 0.17 0.18 0.30 0.34 0.27 0.19 0.15 0.12 0.10 0.12 0.18 0.27 0.38 0.47 0.51 0.48 0.45 0.46 0.42 0.41 0.42 0.43 0.45 0.49 0.54 0.57 0.61 0.62 0.60 0.69 0.79 0.78 0.72
0.00 0.00 0.00 0.00 0.00 0.01 0.02 0.03 0.06 0.14 0.14 0.17 0.25 0.39 0.39 0.27 0.19 0.16 0.16 0.16 0.21 0.32 0.44 0.57 0.68 0.72 0.69 0.58 0.47 0.43 0.39 0.39 0.36 0.37 0.40 0.42 0.43 0.44 0.41 0.38 0.35 0.38 0.42 0.41
0.02 0.02 0.01 0.00 0.01 0.01 0.02 0.04 0.10 0.21 0.31 0.32 0.33 0.44 0.47 0.37 0.26 0.25 0.28 0.32 0.40 0.52 0.60 0.71 0.79 0.77 0.76 0.77 0.65 0.50 0.40 0.39 0.41 0.48 0.44 0.37 0.32 0.29 0.27 0.27 0.30 0.28 0.32 0.35
0.08 0.08 0.03 0.02 0.03 0.06 0.09 0.13 0.20 0.31 0.39 0.51 0.63 0.75 0.61 0.47 0.45 0.42 0.42 0.54 0.64 0.70 0.74 0.77 0.84 0.81 0.68 0.64 0.61 0.55 0.45 0.42 0.42 0.50 0.50 0.38 0.29 0.28 0.30 0.28 0.27 0.31 0.38 0.40
0.16 0.22 0.13 0.04 0.08 0.13 0.23 0.35 0.44 0.61 0.63 0.60 0.84 1.00 0.73 0.57 0.58 0.58 0.54 0.53 0.55 0.67 0.75 0.79 0.85 0.78 0.63 0.55 0.46 0.48 0.49 0.47 0.48 0.50 0.48 0.40 0.33 0.33 0.39 0.38 0.27 0.26 0.28 0.26
0.25 0.39 0.30 0.15 0.23 0.32 0.39 0.48 0.60 0.72 0.83 0.82 0.90 1.01 0.77 0.55 0.52 0.54 0.63 0.63 0.60 0.64 0.65 0.65 0.65 0.70 0.65 0.58 0.47 0.50 0.55 0.56 0.57 0.56 0.53 0.47 0.40 0.38 0.38 0.33 0.26 0.24 0.21 0.19
0.23 0.38 0.43 0.34 0.36 0.43 0.42 0.39 0.45 0.66 0.89 0.91 0.95 0.91 0.68 0.57 0.52 0.54 0.61 0.68 0.63 0.54 0.49 0.47 0.43 0.47 0.50 0.50 0.51 0.54 0.65 0.73 0.75 0.74 0.66 0.59 0.50 0.44 0.39 0.31 0.24 0.20 0.17 0.16
0.16 0.17 0.20 0.18 0.19 0.25 0.32 0.34 0.43 0.56 0.74 0.96 0.86 0.65 0.52 0.50 0.47 0.48 0.54 0.48 0.42 0.37 0.35 0.34 0.31 0.31 0.33 0.35 0.43 0.49 0.62 0.74 0.81 0.83 0.76 0.67 0.63 0.52 0.41 0.35 0.26 0.21 0.16 0.15
0.23 0.18 0.08 0.07 0.10 0.16 0.28 0.41 0.54 0.60 0.67 0.69 0.60 0.55 0.41 0.35 0.32 0.31 0.36 0.36 0.35 0.30 0.26 0.23 0.23 0.21 0.23 0.29 0.35 0.35 0.46 0.61 0.70 0.74 0.73 0.71 0.65 0.52 0.44 0.35 0.26 0.21 0.18 0.18
0.10 0.12 0.09 0.07 0.09 0.17 0.40 0.53 0.60 0.59 0.54 0.45 0.42 0.36 0.25 0.23 0.16 0.16 0.21 0.24 0.29 0.28 0.23 0.20 0.20 0.21 0.23 0.30 0.31 0.32 0.41 0.52 0.56 0.60 0.62 0.62 0.56 0.43 0.38 0.29 0.24 0.23 0.22 0.22
0.10 0.13 0.17 0.12 0.13 0.34 0.61 0.51 0.45 0.48 0.37 0.22 0.20 0.20 0.19 0.15 0.11 0.08 0.08 0.10 0.13 0.16 0.16 0.20 0.18 0.17 0.19 0.24 0.29 0.37 0.40 0.41 0.41 0.45 0.48 0.46 0.46 0.40 0.32 0.25 0.24 0.25 0.24 0.26
0.17 0.22 0.25 0.22 0.23 0.42 0.57 0.38 0.34 0.39 0.33 0.16 0.11 0.11 0.09 0.07 0.05 0.03 0.02 0.05 0.06 0.06 0.07 0.09 0.09 0.09 0.10 0.10 0.11 0.14 0.17 0.19 0.23 0.30 0.36 0.39 0.39 0.35 0.30 0.25 0.31 0.36 0.33 0.31
0.30 0.32 0.32 0.31 0.37 0.50 0.39 0.15 0.15 0.27 0.38 0.13 0.06 0.05 0.04 0.03 0.04 0.02 0.02 0.04 0.03 0.02 0.02 0.03 0.03 0.03 0.02 0.02 0.02 0.03 0.05 0.09 0.13 0.19 0.24 0.28 0.30 0.34 0.37 0.45 0.52 0.52 0.47 0.40
0.19 0.25 0.31 0.39 0.56 0.57 0.33 0.13 0.15 0.28 0.40 0.18 0.05 0.02 0.01 0.01 0.01 0.00 0.02 0.03 0.02 0.01 0.00 0.00 0.01 0.00 0.00 0.00 0.00 0.00 0.01 0.02 0.02 0.04 0.10 0.18 0.29 0.34 0.44 0.55 0.58 0.56 0.50 0.41
0.18 0.28 0.38 0.50 0.66 0.74 0.38 0.19 0.21 0.19 0.13 0.10 0.04 0.01 0.01 0.00 0.00 0.00 0.01 0.01 0.01 0.01 0.00 0.00 0.00 0.00 0.00 0.00 0.00 0.00 0.00 0.00 0.01 0.03 0.07 0.13 0.20 0.29 0.42 0.51 0.50 0.49 0.47 0.44
0.18 0.33 0.45 0.50 0.56 0.47 0.28 0.16 0.11 0.08 0.08 0.03 0.01 0.01 0.00 0.00 0.00 0.00 0.01 0.01 0.01 0.01 0.00 0.00 0.00 0.00 0.00 0.00 0.00 0.00 0.00 0.00 0.00 0.01 0.02 0.06 0.11 0.22 0.36 0.39 0.39 0.42 0.44 0.43
0.08 0.11 0.18 0.20 0.15 0.14 0.11 0.08 0.04 0.03 0.04 0.01 0.00 0.00 0.00 0.00 0.00 0.00 0.00 0.01 0.00 0.00 0.00 0.00 0.00 0.00 0.00 0.00 0.00 0.00 0.00 0.00 0.00 0.00 0.00 0.01 0.02 0.05 0.10 0.15 0.20 0.26 0.31 0.32
0.09 0.10 0.17 0.20 0.10 0.05 0.04 0.04 0.02 0.02 0.02 0.01 0.00 0.00 0.00 0.00 0.00 0.00 0.00 0.00 0.00 0.00 0.00 0.00 0.00 0.00 0.00 0.00 0.00 0.00 0.00 0.00 0.00 0.00 0.00 0.01 0.02 0.03 0.04 0.06 0.09 0.12 0.15 0.19
0.05 0.12 0.16 0.20 0.12 0.06 0.04 0.03 0.02 0.02 0.01 0.01 0.00 0.00 0.00 0.00 0.00 0.00 0.00 0.00 0.00 0.00 0.00 0.00 0.00 0.00 0.00 0.00 0.00 0.00 0.00 0.00 0.00 0.00 0.00 0.00 0.01 0.01 0.01 0.02 0.03 0.04 0.06 0.09